Oscoda, MI

8:41 PM EST on February 05, 2016 (GMT -0500)
Oscoda-Wurtsmith

Weather History for KOSC - November, 2012

Change the Weather History Date:

Friday, November 2, 2012

  Actual Average Record
Temperature  
Mean Temperature 35 °F -  
Max Temperature 39 °F 48 °F 66 °F (2000)
Min Temperature 31 °F 33 °F 21 °F (2008)
Degree Days  
Heating Degree Days 30    
Moisture  
Dew Point 28 °F    
Average Humidity 72    
Maximum Humidity 86    
Minimum Humidity 54    
Precipitation  
Precipitation 0.00 in - - ()
Sea Level Pressure  
Sea Level Pressure 29.90 in    
Wind  
Wind Speed 11 mph (NW)    
Max Wind Speed 18 mph    
Max Gust Speed 26 mph    
Visibility 10 miles    
Events Rain    
Averages and records for this station are not official NWS values.
T = Trace of Precipitation, MM = Missing Value Source: NWS Daily Summary

Daily Weather History Graph

Daily Weather History Graph

Search for Another Location

Airport or City:

Trip Planner

Search our weather history database for the weather conditions in past years. The results will help you decide how hot, cold, wet, or windy it might be!

Date:

Astronomy

Nov. 02, 2012 Rise Set
Actual Time 8:12 AM EDT 6:20 PM EDT
Civil Twilight 7:42 AM EDT 6:51 PM EDT
Nautical Twilight 7:07 AM EDT 7:25 PM EDT
Astronomical Twilight 6:34 AM EDT 7:59 PM EDT
Moon 9:02 PM EDT (11/2) 11:37 AM EDT (11/2)
Length of Visible Light 11h 08m
Length of Day
10h 07m
Waning Gibbous, 87% of the Moon is Illuminated
Nov 2
Waning Gibbous
Nov 6
Last Quarter
Nov 13
New
Nov 20
First Quarter
Nov 28
Full

Hourly Weather History & Observations

Time (EDT) Temp. Windchill Dew Point Humidity Pressure Visibility Wind Dir Wind Speed Gust Speed Precip Events Conditions
12:13 AM 38.5 °F 32.1 °F 29.8 °F 71% 29.73 in 10.0 mi NW 9.2 mph 16.1 mph N/A   Overcast
12:33 AM 37.2 °F 30.0 °F 32.0 °F 81% 29.74 in 10.0 mi North 10.4 mph - N/A Rain Light Rain
12:52 AM 36.1 °F 29.3 °F 32.2 °F 86% 29.74 in 10.0 mi NW 9.2 mph - N/A   Overcast
1:13 AM 36.1 °F 29.3 °F 31.8 °F 84% 29.74 in 10.0 mi NW 9.2 mph - N/A   Overcast
1:33 AM 36.1 °F 29.3 °F 31.5 °F 83% 29.75 in 10.0 mi NW 9.2 mph - N/A   Overcast
1:52 AM 36.1 °F 28.7 °F 30.7 °F 81% 29.75 in 10.0 mi NW 10.4 mph - N/A   Overcast
2:13 AM 36.1 °F 28.7 °F 29.8 °F 78% 29.75 in 10.0 mi NW 10.4 mph - N/A   Overcast
2:33 AM 35.8 °F 28.3 °F 29.5 °F 78% 29.76 in 10.0 mi NW 10.4 mph - N/A   Overcast
2:52 AM 35.8 °F 28.3 °F 28.4 °F 75% 29.76 in 10.0 mi NW 10.4 mph - N/A   Overcast
3:13 AM 35.6 °F 28.0 °F 28.4 °F 75% 29.77 in 10.0 mi NW 10.4 mph - N/A   Overcast
3:33 AM 35.6 °F 29.2 °F 28.4 °F 75% 29.77 in 10.0 mi NW 8.1 mph - N/A   Overcast
3:52 AM 35.4 °F 27.3 °F 27.9 °F 74% 29.77 in 10.0 mi NNW 11.5 mph 18.4 mph N/A   Overcast
4:13 AM 35.1 °F 26.9 °F 28.4 °F 77% 29.78 in 10.0 mi NNW 11.5 mph - N/A   Overcast
4:33 AM 34.2 °F 26.2 °F 29.1 °F 82% 29.78 in 10.0 mi NW 10.4 mph - N/A   Overcast
4:52 AM 34.0 °F 25.5 °F 28.4 °F 80% 29.78 in 10.0 mi NW 11.5 mph 19.6 mph N/A   Overcast
5:13 AM 33.8 °F 25.8 °F 27.7 °F 78% 29.79 in 10.0 mi NW 10.4 mph 18.4 mph N/A   Overcast
5:33 AM 33.8 °F 27.0 °F 27.5 °F 78% 29.79 in 10.0 mi NW 8.1 mph - N/A   Overcast
5:52 AM 33.4 °F 25.4 °F 27.7 °F 79% 29.80 in 10.0 mi NW 10.4 mph - N/A   Overcast
6:13 AM 33.8 °F 25.8 °F 27.1 °F 77% 29.81 in 10.0 mi NW 10.4 mph 17.3 mph N/A   Overcast
6:33 AM 33.4 °F 23.1 °F 27.5 °F 79% 29.82 in 10.0 mi NW 16.1 mph 19.6 mph N/A   Overcast
6:52 AM 33.3 °F 24.6 °F 27.3 °F 79% 29.82 in 10.0 mi NW 11.5 mph 18.4 mph N/A   Overcast
7:13 AM 32.9 °F 25.3 °F 27.0 °F 79% 29.83 in 10.0 mi NW 9.2 mph 20.7 mph N/A   Overcast
7:33 AM 32.0 °F 22.5 °F 26.6 °F 80% 29.84 in 10.0 mi NW 12.7 mph - N/A   Scattered Clouds
7:53 AM 32.0 °F 24.8 °F 26.4 °F 80% 29.84 in 10.0 mi NW 8.1 mph - N/A   Scattered Clouds
8:13 AM 31.5 °F 24.2 °F 26.4 °F 82% 29.85 in 10.0 mi NW 8.1 mph - N/A   Scattered Clouds
8:33 AM 31.3 °F 23.9 °F 26.6 °F 83% 29.86 in 10.0 mi NW 8.1 mph - N/A   Scattered Clouds
8:53 AM 32.0 °F 25.6 °F 26.6 °F 80% 29.87 in 10.0 mi NW 6.9 mph - N/A   Mostly Cloudy
9:13 AM 32.0 °F 25.6 °F 26.6 °F 80% 29.88 in 10.0 mi NW 6.9 mph - N/A   Mostly Cloudy
9:32 AM 34.7 °F 25.9 °F 26.6 °F 72% 29.88 in 10.0 mi NNW 12.7 mph 18.4 mph N/A   Mostly Cloudy
9:53 AM 35.6 °F 25.5 °F 25.3 °F 66% 29.88 in 10.0 mi NNW 17.3 mph 23.0 mph N/A   Overcast
10:13 AM 35.6 °F 25.9 °F 24.4 °F 64% 29.89 in 10.0 mi NNW 16.1 mph 26.5 mph N/A   Overcast
10:32 AM 35.8 °F 26.1 °F 24.1 °F 62% 29.89 in 10.0 mi NNW 16.1 mph 25.3 mph N/A   Overcast
10:53 AM 36.9 °F 27.5 °F 24.6 °F 61% 29.90 in 10.0 mi NNW 16.1 mph 25.3 mph N/A   Overcast
11:13 AM 38.1 °F 29.1 °F 24.8 °F 59% 29.90 in 10.0 mi NNW 16.1 mph 21.9 mph N/A   Overcast
11:32 AM 37.2 °F 30.0 °F 25.2 °F 62% 29.91 in 10.0 mi North 10.4 mph 18.4 mph N/A   Overcast
11:53 AM 38.3 °F 28.7 °F 24.8 °F 58% 29.91 in 10.0 mi NNW 18.4 mph 21.9 mph N/A   Overcast
12:13 PM 38.8 °F 30.8 °F 25.0 °F 58% 29.92 in 10.0 mi NNW 13.8 mph 20.7 mph N/A   Overcast
12:32 PM 38.5 °F 29.9 °F 23.5 °F 55% 29.92 in 10.0 mi NNW 15.0 mph 19.6 mph N/A   Overcast
12:53 PM 39.0 °F 31.0 °F 23.7 °F 54% 29.92 in 10.0 mi North 13.8 mph 20.7 mph N/A   Overcast
1:13 PM 38.5 °F 30.3 °F 23.4 °F 55% 29.93 in 10.0 mi NNW 13.8 mph 19.6 mph N/A   Overcast
1:32 PM 38.7 °F 30.1 °F 23.5 °F 55% 29.93 in 10.0 mi North 15.0 mph 21.9 mph N/A   Overcast
1:53 PM 38.5 °F 30.3 °F 23.7 °F 55% 29.93 in 10.0 mi NW 13.8 mph 21.9 mph N/A   Overcast
2:13 PM 38.7 °F 30.5 °F 23.9 °F 55% 29.93 in 10.0 mi NW 13.8 mph 20.7 mph N/A   Overcast
2:32 PM 39.2 °F 30.8 °F 24.1 °F 55% 29.93 in 10.0 mi NNW 15.0 mph 19.6 mph N/A   Overcast
2:53 PM 38.8 °F 29.7 °F 23.7 °F 55% 29.94 in 10.0 mi NNW 17.3 mph 23.0 mph N/A   Overcast
3:13 PM 39.4 °F 31.4 °F 24.6 °F 56% 29.94 in 10.0 mi NNW 13.8 mph 18.4 mph N/A   Overcast
3:32 PM 39.2 °F 30.8 °F 24.6 °F 56% 29.94 in 10.0 mi NNW 15.0 mph 23.0 mph N/A   Overcast
3:53 PM 39.2 °F 30.8 °F 24.4 °F 56% 29.95 in 10.0 mi NNW 15.0 mph - N/A   Overcast
4:13 PM 39.2 °F 30.8 °F 24.8 °F 56% 29.95 in 10.0 mi NNW 15.0 mph 20.7 mph N/A   Overcast
4:33 PM 39.2 °F 30.8 °F 25.2 °F 57% 29.96 in 10.0 mi NNW 15.0 mph 19.6 mph N/A   Overcast
4:52 PM 39.2 °F 30.2 °F 25.2 °F 57% 29.96 in 10.0 mi NNW 17.3 mph 24.2 mph N/A   Overcast
5:13 PM 38.8 °F 32.1 °F 25.7 °F 59% 29.97 in 10.0 mi NNW 10.4 mph 20.7 mph N/A   Overcast
5:33 PM 38.8 °F 30.8 °F 25.7 °F 59% 29.97 in 10.0 mi NNW 13.8 mph 17.3 mph N/A   Overcast
5:52 PM 38.5 °F 30.3 °F 25.7 °F 60% 29.98 in 10.0 mi NNW 13.8 mph 18.4 mph N/A   Overcast
6:13 PM 38.3 °F 31.4 °F 28.0 °F 67% 29.98 in 10.0 mi NW 10.4 mph - N/A   Overcast
6:33 PM 37.8 °F 30.7 °F 28.4 °F 69% 29.99 in 10.0 mi NW 10.4 mph - N/A   Overcast
6:52 PM 37.6 °F 30.0 °F 29.3 °F 72% 30.00 in 10.0 mi WNW 11.5 mph - N/A   Overcast
7:13 PM 36.5 °F 29.7 °F 31.1 °F 81% 30.01 in 10.0 mi NW 9.2 mph - N/A   Overcast
7:33 PM 36.5 °F 30.3 °F 31.1 °F 81% 30.01 in 10.0 mi NW 8.1 mph - N/A   Overcast
7:52 PM 36.5 °F 29.2 °F 31.1 °F 81% 30.01 in 10.0 mi NW 10.4 mph - N/A   Overcast
8:13 PM 36.5 °F 29.7 °F 31.1 °F 81% 30.02 in 10.0 mi NW 9.2 mph - N/A   Overcast
8:33 PM 36.1 °F 29.3 °F 30.9 °F 81% 30.02 in 10.0 mi NW 9.2 mph - N/A   Overcast
8:52 PM 36.0 °F 29.6 °F 30.6 °F 81% 30.02 in 10.0 mi NW 8.1 mph - N/A   Overcast
9:13 PM 36.1 °F 28.2 °F 30.7 °F 81% 30.03 in 10.0 mi WNW 11.5 mph - N/A   Overcast
9:33 PM 35.6 °F 29.2 °F 31.1 °F 84% 30.03 in 10.0 mi WNW 8.1 mph - N/A   Overcast
9:52 PM 35.2 °F 27.1 °F 30.7 °F 84% 30.03 in 10.0 mi NW 11.5 mph 16.1 mph N/A   Overcast
10:13 PM 34.9 °F 26.6 °F 30.6 °F 84% 30.03 in 10.0 mi NW 11.5 mph - N/A   Overcast
10:33 PM 34.5 °F 28.6 °F 30.2 °F 84% 30.04 in 10.0 mi NW 6.9 mph - N/A   Mostly Cloudy
10:52 PM 34.2 °F 27.5 °F 30.0 °F 85% 30.04 in 10.0 mi NW 8.1 mph - N/A   Mostly Cloudy
11:13 PM 34.3 °F 28.4 °F 30.2 °F 85% 30.05 in 10.0 mi NW 6.9 mph - N/A   Overcast
11:33 PM 34.9 °F 29.9 °F 30.6 °F 84% 30.05 in 10.0 mi NNW 5.8 mph - N/A   Overcast
11:52 PM 34.9 °F 29.0 °F 30.2 °F 83% 30.05 in 10.0 mi NW 6.9 mph - N/A   Overcast